Location: Buchloe
(48.0161°N, 10.7316°E)
Time: 04:34:14
(UTC+02:00)

ISS - Pass Details

Date: 15 July 2025
Orbit: 413 x 417 km, 51.6° (Epoch: 12 July)

Event Time Altitude Azimuth Distance (km) Brightness Sun altitude
Rises 01:57:50 0° 290° (WNW) 2,355 0.2 -20.0°
Reaches altitude 10° 02:00:03 10° 281° (W) 1,490 -1.0 -20.0°
Enters shadow 02:00:23 12° 278° (W) 1,365 -1.2 -20.0°
